Le nostre stazioni meteo in Italia

Pubblicità
Il mio iltempo24.it
Lampedusa, Italia (16490): Temperatura & dewpoint: 15.04.2019 09:00:00 - 21.04.2019 09:00:00 (CEST)Lampedusa, Italia (16490): velocità del vento: 15.04.2019 09:00:00 - 21.04.2019 09:00:00 (CEST)Lampedusa, Italia (16490): direzione del vento: 15.04.2019 09:00:00 - 21.04.2019 09:00:00 (CEST)Lampedusa, Italia (16490): reduced air pressure: 15.04.2019 09:00:00 - 21.04.2019 09:00:00 (CEST)Lampedusa, Italia (16490): visibility: 15.04.2019 09:00:00 - 21.04.2019 09:00:00 (CEST)Lampedusa, Italia (16490): precipitazioni: 15.04.2019 09:00:00 - 21.04.2019 09:00:00 (CEST)
Data & Tempo tt [°C] td [°C] ff [km/h] ff [kn] dd ppp [hPa] vv [km] rr [mm]
21.04.2019 09:00:00 - - - - - - - -
21.04.2019 08:00:00 16,5 13,4 54 29 ESE 1012,3 6 -
21.04.2019 07:00:00 16,0 13,0 52 28 ESE - 6 -
21.04.2019 06:00:00 16,0 13,0 50 27 ESE - 5 -
21.04.2019 05:00:00 16,1 13,4 52 28 E 1012,2 6 0,0
21.04.2019 04:00:00 16,0 14,0 52 28 E - 6 -
21.04.2019 03:00:00 16,0 14,0 48 26 ESE - 6 -
21.04.2019 02:00:00 16,0 13,8 48 26 ESE 1014,5 6 -
21.04.2019 01:00:00 16,0 14,0 52 28 ESE - 6 -
21.04.2019 00:00:00 16,0 14,0 50 27 ESE - 6 -
20.04.2019 23:00:00 16,0 13,6 50 27 E 1015,7 6 0,0
20.04.2019 22:00:00 16,0 14,0 50 27 E - 10 -
20.04.2019 21:00:00 16,0 14,0 42 23 ESE - 10 -
20.04.2019 20:00:00 16,0 13,7 44 24 ESE 1015,9 8 -
20.04.2019 19:00:00 16,0 14,0 46 25 ESE - 10 -
20.04.2019 18:00:00 17,0 14,0 48 26 ESE - 10 -
20.04.2019 17:00:00 16,8 13,7 48 26 ESE 1016,7 10 0,0
20.04.2019 16:00:00 17,0 14,0 44 24 E - 10 -
20.04.2019 15:00:00 18,0 14,0 44 24 E - 10 -
20.04.2019 14:00:00 17,4 14,3 42 23 ESE 1019,0 10 -
20.04.2019 13:00:00 17,0 14,0 41 22 ESE - 10 -
20.04.2019 12:00:00 17,0 14,0 37 20 ESE - 10 -
20.04.2019 11:00:00 17,3 14,2 39 21 ESE 1020,9 10 0,0
20.04.2019 10:00:00 17,0 14,0 37 20 E - 10 -
20.04.2019 09:00:00 16,0 14,0 37 20 E - 10 -
20.04.2019 08:00:00 15,6 13,4 35 19 ESE 1020,9 10 -
20.04.2019 07:00:00 15,0 13,0 37 20 ESE - 10 -
20.04.2019 06:00:00 15,0 13,0 35 19 E - 10 -
20.04.2019 05:00:00 15,3 13,4 35 19 E 1020,7 10 0,0
20.04.2019 04:00:00 15,0 13,0 35 19 E - 10 -
20.04.2019 03:00:00 15,0 13,0 35 19 E - 10 -
20.04.2019 02:00:00 15,3 13,4 31 17 E 1021,9 10 -
20.04.2019 01:00:00 16,0 14,0 35 19 E - 10 -
20.04.2019 00:00:00 16,0 14,0 34 18 E - 10 -
19.04.2019 23:00:00 16,0 14,0 35 19 E - 10 -
19.04.2019 22:00:00 16,0 14,0 34 18 E - 10 -
19.04.2019 21:00:00 16,0 14,0 35 19 E - 10 -
19.04.2019 20:00:00 16,0 14,0 39 21 E 1022,1 10 -
19.04.2019 19:00:00 16,0 14,0 34 18 E - 10 -
19.04.2019 18:00:00 17,0 14,0 35 19 E - 10 -
19.04.2019 17:00:00 17,0 14,3 34 18 E 1022,1 10 0,0
19.04.2019 16:00:00 18,0 14,0 37 20 E - 10 -
19.04.2019 15:00:00 18,0 14,0 34 18 ESE - 10 -
19.04.2019 14:00:00 18,2 14,4 34 18 ESE 1023,3 10 -
19.04.2019 13:00:00 18,0 14,0 35 19 E - 10 -
19.04.2019 12:00:00 18,0 14,0 31 17 ESE - 10 -
19.04.2019 11:00:00 17,4 14,1 31 17 ESE 1023,7 10 0,0
19.04.2019 10:00:00 17,0 14,0 31 17 ESE - 10 -
19.04.2019 09:00:00 16,0 14,0 31 17 ESE - 10 -
19.04.2019 08:00:00 16,0 14,0 31 17 ESE 1021,6 10 -
19.04.2019 07:00:00 16,0 14,0 31 17 ESE - 9 -
19.04.2019 06:00:00 16,0 14,0 34 18 E - 10 -
19.04.2019 05:00:00 15,6 13,9 31 17 ESE 1020,1 10 0,0
19.04.2019 04:00:00 16,0 14,0 31 17 ESE - 10 -
19.04.2019 03:00:00 16,0 14,0 29 16 ESE - 10 -
19.04.2019 02:00:00 15,7 14,0 31 17 ESE 1020,7 10 -
19.04.2019 01:00:00 16,0 14,0 29 16 ESE - 10 -
19.04.2019 00:00:00 16,0 14,0 29 16 ESE - 10 -
18.04.2019 23:00:00 15,7 14,0 29 16 ESE 1020,6 10 0,0
18.04.2019 22:00:00 16,0 14,0 29 16 ESE - 10 -
18.04.2019 21:00:00 16,0 14,0 31 17 ESE - 10 -
18.04.2019 20:00:00 16,0 13,9 31 17 E 1019,0 10 -
18.04.2019 19:00:00 17,0 14,0 24 13 ESE - 10 -
18.04.2019 18:00:00 17,0 14,0 24 13 ESE - 10 -
18.04.2019 17:00:00 17,2 13,6 21 11 ESE 1019,3 10 0,0
18.04.2019 16:00:00 18,0 14,0 21 11 SE - 10 -
18.04.2019 15:00:00 18,0 14,0 21 11 SE - 10 -
18.04.2019 14:00:00 18,0 14,2 18 10 SE 1020,5 10 -
18.04.2019 13:00:00 18,0 14,0 18 10 SE - 10 -
18.04.2019 12:00:00 18,0 14,0 21 11 SE - 10 -
18.04.2019 11:00:00 17,3 13,5 18 10 SE 1020,8 10 0,0
18.04.2019 10:00:00 16,0 13,0 16 9 SE - 10 -
18.04.2019 09:00:00 16,0 13,0 15 8 SE - 10 -
18.04.2019 08:00:00 15,7 13,2 15 8 SE 1020,1 10 -
18.04.2019 07:00:00 15,0 13,0 16 9 SE - 10 -
18.04.2019 06:00:00 15,0 13,0 15 8 ESE - 10 -
18.04.2019 05:00:00 14,8 13,0 15 8 ESE 1019,4 10 0,0
18.04.2019 04:00:00 15,0 13,0 13 7 SE - 10 -
18.04.2019 03:00:00 15,0 14,0 13 7 ESE - 10 -
18.04.2019 02:00:00 15,0 13,6 11 6 ESE 1020,1 10 -
18.04.2019 01:00:00 15,0 14,0 11 6 ESE - 10 -
18.04.2019 00:00:00 15,0 14,0 11 6 ESE - 10 -
17.04.2019 23:00:00 15,3 13,5 9 5 SE 1020,4 10 0,0
17.04.2019 22:00:00 16,0 14,0 11 6 ESE - 10 -
17.04.2019 21:00:00 - - - - - - - -
17.04.2019 20:00:00 15,7 13,4 8 4 ESE 1019,2 10 -
17.04.2019 19:00:00 17,0 13,0 9 5 ESE - 10 -
17.04.2019 18:00:00 17,0 14,0 9 5 ESE - 10 -
17.04.2019 17:00:00 18,0 14,0 9 5 ESE - 10 -
17.04.2019 16:00:00 17,0 14,0 11 6 ESE - 10 -
17.04.2019 15:00:00 18,0 14,0 11 6 ESE - 10 -
17.04.2019 14:00:00 17,5 13,9 11 6 ESE 1019,9 10 -
17.04.2019 13:00:00 18,0 14,0 11 6 ESE - 10 -
17.04.2019 12:00:00 18,0 15,0 13 7 ESE - 10 -
17.04.2019 11:00:00 17,2 14,4 11 6 E 1020,2 10 0,0
17.04.2019 10:00:00 16,0 14,0 11 6 ENE - 10 -
17.04.2019 09:00:00 16,0 14,0 9 5 E - 10 -
17.04.2019 08:00:00 15,6 13,9 9 5 E 1019,3 10 -
17.04.2019 07:00:00 15,0 14,0 9 5 ENE - 10 -
17.04.2019 06:00:00 15,0 14,0 5 3 ENE - 10 -
17.04.2019 05:00:00 14,8 13,5 5 3 ESE 1018,3 10 0,0
17.04.2019 04:00:00 15,0 13,0 13 7 SE - 10 -
17.04.2019 03:00:00 15,0 13,0 11 6 SSE - 10 -
17.04.2019 02:00:00 15,2 13,1 16 9 SSE 1019,0 10 -
17.04.2019 01:00:00 15,0 13,0 21 11 SE - 10 -
17.04.2019 00:00:00 15,0 13,0 18 10 SE - 10 -
16.04.2019 23:00:00 15,3 13,1 15 8 SE 1020,1 10 0,0
16.04.2019 22:00:00 15,0 13,0 15 8 ESE - 10 -
16.04.2019 21:00:00 15,0 13,0 16 9 ESE - 10 -
16.04.2019 20:00:00 15,5 13,0 15 8 ESE 1019,4 10 -
16.04.2019 19:00:00 16,0 13,0 15 8 ESE - 10 -
16.04.2019 18:00:00 16,0 13,0 13 7 SE - 10 -
16.04.2019 17:00:00 16,8 12,8 13 7 SE 1019,0 10 0,0
16.04.2019 16:00:00 17,0 13,0 15 8 SE - 10 -
16.04.2019 15:00:00 17,0 13,0 11 6 S - 10 -
16.04.2019 14:00:00 17,2 13,0 11 6 S 1020,1 10 -
16.04.2019 13:00:00 17,0 13,0 13 7 SSO - 10 -
16.04.2019 12:00:00 17,0 13,0 11 6 S - 10 -
16.04.2019 11:00:00 16,1 12,8 9 5 S 1020,5 10 0,0
16.04.2019 10:00:00 16,0 13,0 8 4 SSO - 10 -
16.04.2019 09:00:00 16,0 13,0 4 2 - - 10 -
16.04.2019 08:00:00 14,1 12,4 5 3 O 1020,0 10 -
16.04.2019 07:00:00 12,0 11,0 8 4 O - 10 -
16.04.2019 06:00:00 13,0 11,0 2 1 O - 10 -
16.04.2019 05:00:00 13,6 11,3 4 2 NNE 1018,7 10 0,0
16.04.2019 04:00:00 14,0 12,0 18 10 NNE - 10 -
16.04.2019 03:00:00 14,0 12,0 22 12 NNE - 10 -
16.04.2019 02:00:00 14,1 11,5 13 7 N 1019,0 10 -
16.04.2019 01:00:00 14,0 11,0 16 9 N - 10 -
16.04.2019 00:00:00 14,0 11,0 16 9 N - 10 -
15.04.2019 23:00:00 14,5 10,7 21 11 N 1018,8 10 0,0
15.04.2019 22:00:00 15,0 10,0 26 14 NNO - 10 -
15.04.2019 21:00:00 15,0 11,0 26 14 NNO - 10 -
15.04.2019 20:00:00 14,9 10,8 28 15 NNO 1017,1 20 -
15.04.2019 19:00:00 16,0 10,0 35 19 NNO - 10 -
15.04.2019 18:00:00 16,0 11,0 35 19 NNO - 10 -
15.04.2019 17:00:00 17,0 10,0 35 19 NO - 10 -
15.04.2019 16:00:00 17,0 9,0 37 20 NO - 10 -
15.04.2019 15:00:00 17,0 10,0 34 18 NO - 10 -
15.04.2019 14:00:00 17,2 9,8 34 18 NO 1015,2 10 -
15.04.2019 13:00:00 17,0 9,0 35 19 NO - 10 -
15.04.2019 12:00:00 18,0 10,0 34 18 ONO - 10 -
15.04.2019 11:00:00 16,6 8,9 35 19 NO 1014,9 10 0,0
15.04.2019 10:00:00 17,0 10,0 35 19 ONO - 10 -
15.04.2019 09:00:00 16,0 11,0 35 19 NO - 10 -

tt = Temperatura
td = dewpoint
ff = velocità del vento
dd = direzione del vento
ppp = reduced air pressure
vv = visibility
rr = precipitazioni

Stazioni seguenti

WeatherPro
AMSI
MeteoEarth